Theta_e
350 354 358 354 352 353 353 352 351 350 352 352 352 353 354 356 357 357 357 358 359 356 355 356 357 357 356 356 355 357 359 359 359 358 359 358 359 360 360 358 358 354 360
352 354 357 354 353 355 355 354 353 351 351 350 350 350 350 352 355 356 355 357 357 355 354 354 355 356 356 356 354 354 355 355 356 357 358 357 358 360 360 358 361 358 360
350 353 351 355 355 357 357 357 353 353 354 354 354 353 350 348 352 354 354 356 355 354 353 353 354 354 354 353 352 352 351 352 352 353 355 352 352 357 357 357 358 358 360
351 350 348 355 357 359 359 356 353 354 354 352 351 351 354 351 349 354 354 353 353 353 352 352 352 352 351 350 349 350 351 352 354 355 350 351 349 356 356 356 355 355 358
348 349 350 356 358 359 356 354 352 353 351 349 349 348 349 352 351 351 354 352 353 352 352 351 351 352 352 351 350 350 352 355 356 351 345 348 346 353 356 355 355 355 355
344 348 352 357 359 358 354 354 353 352 350 349 349 349 350 349 350 352 351 355 353 351 350 350 352 351 352 353 351 349 352 355 356 345 348 351 348 356 355 355 355 355 356
343 346 348 357 358 357 355 354 353 351 349 348 348 349 350 350 349 350 350 351 351 350 349 349 350 350 351 352 348 348 353 355 347 343 349 348 351 355 354 353 353 354 354
345 340 346 356 357 359 355 354 353 351 349 349 348 348 349 349 349 349 348 349 349 348 348 346 347 347 349 351 347 350 354 355 346 343 348 347 354 356 353 351 351 352 352
340 340 342 349 354 356 355 354 353 351 349 350 349 349 348 348 349 349 349 348 347 347 346 343 344 345 345 345 348 350 353 356 346 345 345 344 354 354 352 352 350 350 351
337 338 339 344 350 349 350 354 352 351 350 349 349 348 347 348 348 348 351 349 347 345 345 344 344 345 348 349 349 351 354 355 342 340 342 345 353 352 350 350 351 351 351
335 336 338 340 346 345 344 350 352 351 350 348 347 348 348 343 342 343 349 350 347 346 346 346 346 349 350 351 351 352 353 340 338 341 338 352 351 350 349 350 351 352 351
331 334 337 340 341 343 343 348 345 345 345 345 345 346 344 346 347 344 345 349 348 347 348 348 349 349 349 341 341 350 344 340 339 338 340 352 352 349 348 350 350 351 352
331 335 337 342 347 343 346 346 343 345 346 347 351 349 348 348 346 342 340 338 341 345 339 343 341 340 338 338 339 338 339 338 334 338 344 352 352 350 349 350 350 350 351
331 334 339 341 346 356 347 346 344 344 347 347 349 353 356 350 349 348 342 342 342 340 339 337 337 338 341 341 337 335 335 335 335 338 345 352 351 350 349 349 350 350 350
330 336 342 346 355 356 355 350 352 348 346 349 351 351 351 352 354 353 350 349 350 345 345 345 343 345 343 341 339 337 337 335 337 339 339 351 351 351 350 350 350 350 350
331 337 336 340 354 350 357 360 353 354 355 351 353 354 353 356 358 356 354 352 350 350 348 348 346 348 343 343 340 341 340 336 337 338 340 343 350 350 351 351 350 349 350
333 337 346 345 348 357 356 358 353 351 344 351 348 358 356 356 355 359 353 353 352 352 355 352 349 347 344 340 340 341 341 341 338 339 342 340 342 349 351 351 352 351 349
335 338 341 335 345 352 356 355 350 348 350 349 350 351 353 357 357 357 350 350 353 355 355 346 347 345 343 342 340 341 341 340 339 339 340 340 340 338 347 350 351 352 351
344 340 340 345 339 349 352 352 355 354 356 350 351 350 355 350 350 353 351 353 357 353 353 351 344 348 345 345 342 342 341 344 345 341 340 338 338 340 338 345 349 350 350
343 347 345 346 350 353 350 352 350 348 348 351 349 348 353 351 349 353 351 352 355 352 351 353 348 350 348 340 342 341 340 345 344 340 340 339 338 336 339 340 341 345 349
344 353 351 350 354 357 347 346 344 342 346 346 347 351 351 352 352 354 349 352 354 349 349 350 353 351 349 349 342 340 340 344 339 337 337 339 339 338 340 341 340 337 343
346 350 356 357 361 356 353 352 351 351 347 346 346 347 351 349 351 352 354 350 351 349 352 349 351 346 345 352 340 337 329 330 336 335 336 338 339 342 341 340 339 341 339
344 350 352 357 363 363 359 359 359 357 354 348 351 353 351 351 347 350 353 355 356 355 347 351 347 346 340 343 343 335 325 323 327 333 332 334 336 338 338 339 339 341 340
344 349 351 357 359 361 364 358 357 353 350 349 350 350 354 356 351 349 354 354 356 352 349 350 348 346 342 337 339 339 336 329 322 321 332 332 334 334 334 335 336 338 335
349 352 360 368 364 364 364 363 358 357 354 354 354 358 358 358 358 355 356 355 350 352 349 347 346 344 342 340 338 336 333 330 329 325 321 324 330 331 333 329 329 330 330
348 348 353 355 359 364 363 365 366 360 357 352 353 351 354 348 349 350 351 351 350 350 348 348 347 345 342 339 336 335 328 325 325 325 323 325 321 318 317 319 320 320 324
Wind_Speed
17 16 15 14 13 12 12 13 12 10 10 10 10 10 9 9 10 10 10 10 10 10 10 10 10 10 10 10 9 8 8 6 6 8 10 13 12 11 10 5 7 12 13
20 16 16 14 13 13 12 13 11 9 10 10 10 10 9 8 8 8 8 9 10 10 9 9 9 9 10 9 9 8 5 3 1 5 8 10 12 13 12 13 15 12 12
20 16 15 13 13 12 12 11 11 8 10 9 9 9 9 9 8 8 8 8 10 9 9 8 8 8 8 6 6 4 3 6 4 2 3 4 8 15 14 14 13 11 11
18 13 14 13 11 12 12 12 9 9 9 9 8 8 8 9 8 7 7 8 8 9 8 7 7 7 6 4 4 4 5 7 7 6 6 5 10 14 14 11 10 10 11
15 15 14 13 10 12 11 9 9 8 8 8 8 8 8 8 8 8 8 5 9 9 8 8 7 7 6 5 3 4 7 8 9 12 4 10 7 11 12 7 9 8 6
17 17 15 12 10 12 11 11 9 9 7 7 7 7 7 8 7 7 7 9 8 8 8 7 7 7 7 6 4 3 7 8 13 7 6 13 11 9 10 10 10 10 9
19 16 15 12 11 12 12 11 10 9 7 7 7 7 7 7 7 7 7 7 7 7 7 7 6 5 5 4 3 4 8 9 8 6 11 10 9 9 11 7 7 8 7
18 16 15 12 12 12 11 10 10 9 8 8 7 7 7 6 6 6 6 6 5 5 4 4 4 3 3 3 2 5 9 9 9 5 8 9 10 10 11 8 5 5 6
19 17 14 13 11 13 11 10 9 8 8 8 7 6 7 6 6 7 6 5 4 4 3 1 1 1 1 2 3 6 9 10 7 7 11 7 11 10 8 8 6 5 4
19 17 15 14 12 11 10 11 10 8 7 7 6 6 7 8 8 6 6 5 4 3 2 2 1 3 4 8 9 10 9 10 9 4 8 6 10 10 8 5 6 6 5
15 17 16 15 12 12 12 10 9 8 7 6 7 7 6 7 9 11 7 8 5 3 3 4 4 7 9 9 12 13 11 6 10 5 6 13 12 9 6 5 6 7 7
13 16 16 13 13 12 11 12 9 9 7 7 7 8 7 8 5 9 9 10 8 7 6 7 9 11 8 7 6 13 6 10 10 10 6 14 13 9 6 6 6 6 7
12 8 15 12 9 12 13 8 6 7 6 6 8 7 9 5 5 5 6 5 5 9 6 8 8 7 9 9 11 6 10 10 2 6 10 15 12 10 7 8 7 7 6
12 10 8 11 6 1 11 7 7 7 6 6 8 7 3 1 4 4 6 8 8 6 9 8 7 8 8 4 8 7 7 4 2 6 9 15 14 11 8 8 9 9 8
12 11 5 10 4 1 3 4 3 4 5 5 6 8 5 4 4 3 4 3 3 5 5 6 5 5 5 6 7 7 6 5 6 7 6 16 16 14 12 10 9 9 9
13 11 9 12 7 5 3 3 3 3 2 3 3 6 8 4 3 2 2 3 4 4 4 4 1 2 4 5 6 7 5 4 6 5 8 8 14 15 15 14 11 10 10
12 14 8 7 11 6 6 3 3 4 5 3 4 4 7 6 5 3 4 4 5 5 3 2 4 4 5 5 6 5 5 7 5 5 3 8 9 15 15 16 15 14 12
10 14 10 12 13 10 6 5 4 5 4 4 4 4 7 6 6 4 4 5 5 4 2 2 3 4 5 6 5 5 3 3 6 6 5 5 8 9 13 16 16 16 16
6 14 12 8 10 13 9 6 5 6 4 4 3 4 6 8 8 6 5 5 6 4 4 4 4 3 4 5 7 4 4 3 4 4 4 7 5 9 8 17 18 16 15
9 10 11 8 7 10 8 6 5 5 5 4 4 5 6 6 9 6 6 7 6 4 4 3 5 4 3 4 8 4 5 10 3 3 3 4 6 6 3 11 11 11 18
13 9 10 10 9 5 6 7 7 7 5 5 6 7 7 5 6 6 7 6 6 6 7 8 4 5 3 2 3 4 3 10 3 3 2 4 5 6 6 10 3 3 9
10 11 9 9 8 7 5 4 5 5 7 6 7 8 9 8 7 6 5 6 6 5 7 9 6 4 3 2 3 1 4 5 3 2 4 3 4 2 2 7 6 6 7
12 11 11 10 7 8 8 4 4 4 4 6 5 3 7 10 11 7 6 5 4 4 6 6 6 6 6 4 6 3 2 4 3 2 2 4 6 4 2 4 4 4 8
11 14 14 13 13 10 11 8 8 6 6 6 6 6 6 8 7 8 7 6 5 5 6 4 4 5 7 8 4 4 1 0 2 4 1 3 4 4 4 4 4 3 2
8 7 5 3 8 9 8 9 7 7 6 6 5 3 7 3 4 2 1 1 3 4 6 6 6 7 5 4 5 3 1 1 4 7 10 4 0 2 2 4 4 2 4
8 8 9 8 7 6 3 2 3 5 4 5 5 5 3 5 7 11 11 8 6 5 5 5 5 6 6 7 5 4 1 1 3 8 6 3 6 6 7 7 7 7 7
Wind_Direction
118 123 121 119 115 110 102 96 92 95 98 97 92 88 88 81 83 85 92 101 95 88 86 83 80 81 77 72 64 52 39 53 75 90 85 100 89 65 45 22 139 101 111
121 126 122 123 120 115 108 102 98 97 95 91 92 92 93 95 92 92 93 91 92 93 90 88 85 82 82 75 65 48 26 352 335 98 116 100 94 89 69 55 65 95 102
122 128 126 126 125 122 108 100 98 100 100 92 98 99 98 103 104 98 109 105 99 91 85 81 80 76 74 67 58 42 350 293 331 14 232 119 89 79 69 69 76 93 107
124 136 130 132 134 118 112 105 104 93 91 92 91 89 84 106 102 92 101 113 103 100 91 80 74 65 57 38 25 360 302 312 327 314 260 177 95 82 79 81 93 107 117
131 121 125 137 143 123 112 113 113 106 100 98 93 91 89 89 96 98 82 113 113 103 96 90 84 70 45 32 40 350 302 317 323 308 25 113 96 83 80 73 108 108 124
138 122 134 143 142 119 130 126 124 116 111 106 101 98 93 93 94 102 98 95 101 98 92 90 87 69 57 61 51 360 305 320 321 300 144 87 81 101 91 88 92 93 103
123 126 138 146 133 133 128 131 128 122 121 116 110 110 104 96 103 109 114 112 112 110 101 99 96 77 54 43 16 316 305 321 298 293 106 97 99 102 90 80 95 107 121
125 140 140 148 143 131 134 134 132 131 130 121 118 117 115 114 116 120 125 127 125 119 110 110 113 95 67 32 335 298 296 299 308 347 100 99 117 111 105 96 93 108 128
131 132 143 149 154 130 142 140 137 134 129 127 132 132 132 139 143 139 135 131 133 140 140 120 114 115 77 304 262 252 264 283 295 277 120 115 125 120 115 122 123 133 139
140 144 152 150 158 159 155 149 144 140 137 143 165 171 169 171 165 164 158 153 159 168 187 186 255 263 248 241 249 249 256 282 271 304 93 122 126 120 126 147 151 152 154
150 149 155 155 161 177 152 151 150 151 153 170 198 202 207 214 179 161 140 151 170 200 214 236 238 245 249 257 258 260 267 257 254 112 116 135 122 123 138 171 184 174 167
163 154 155 155 165 182 152 144 169 170 181 195 199 179 217 222 146 155 150 162 179 201 219 231 238 249 258 257 233 241 245 247 254 129 131 132 130 136 152 171 185 180 186
167 163 153 153 171 177 121 159 184 168 184 194 212 182 219 196 164 171 155 179 195 206 205 207 224 235 232 231 230 220 228 234 304 120 138 139 139 147 168 178 179 181 193
164 156 149 143 148 308 135 165 187 174 178 193 193 189 224 235 180 228 170 188 197 180 210 192 205 217 227 317 303 296 305 323 32 123 149 151 150 156 171 183 184 183 187
161 144 159 127 129 150 330 158 255 170 172 197 168 175 243 203 189 226 281 200 232 172 194 208 223 195 203 217 243 251 293 352 321 131 154 167 160 161 174 185 190 190 190
156 143 174 150 150 176 242 299 200 299 157 183 248 174 190 251 254 245 233 283 266 276 254 216 210 287 239 250 253 228 222 202 294 309 138 169 174 172 176 183 196 199 193
156 148 157 171 155 183 194 240 264 212 223 229 209 248 179 185 272 259 261 221 242 242 239 9 342 317 297 279 273 275 214 194 219 262 177 170 176 185 186 186 190 197 204
167 149 166 188 162 167 197 215 238 250 257 213 218 204 189 186 206 248 241 275 263 258 257 179 204 233 265 263 248 251 263 228 207 220 216 200 173 186 192 197 197 194 197
173 152 167 191 196 169 186 211 231 256 264 273 269 221 200 198 210 208 250 250 252 263 276 203 215 236 267 313 316 7 21 41 9 19 22 333 236 171 181 198 198 200 203
178 155 164 182 214 166 173 190 233 229 247 252 248 268 247 197 203 206 221 245 274 278 263 230 217 219 200 256 292 347 27 298 311 323 1 346 303 313 264 192 194 197 201
168 170 172 176 188 198 183 185 205 233 229 225 229 238 255 253 228 196 220 237 230 242 265 283 224 244 265 207 340 291 232 240 216 289 309 296 319 13 22 1 351 222 200
174 179 183 184 184 197 210 203 220 207 224 228 216 223 216 218 232 233 224 228 242 260 236 243 271 276 260 272 228 325 297 297 271 18 18 349 327 348 331 327 305 326 327
182 182 187 196 202 197 213 213 221 243 284 288 279 240 211 208 211 211 226 237 268 275 275 288 255 254 259 265 236 216 280 246 14 345 2 344 320 309 273 227 93 345 334
195 186 193 191 194 204 196 211 244 253 253 228 235 250 251 212 200 215 210 217 226 242 255 283 307 268 268 252 287 216 85 194 252 287 272 267 229 261 304 10 10 69 66
37 45 79 188 194 202 201 210 230 247 255 294 255 335 319 79 357 250 268 88 326 330 319 336 307 295 294 308 296 288 109 212 225 257 281 291 107 342 22 37 18 41 108
31 26 41 45 34 36 30 325 240 283 334 314 351 356 354 74 39 38 34 30 15 5 348 354 4 13 17 23 9 2 69 40 289 263 240 288 12 59 23 29 38 42 20